Regional Weather Roundup
Issued by NWS

Home | Current Version | Previous Version | Graphics & Text | Print | Product List | Glossary On
Versions: 1 2 3 4 5 6 7 8 9 10 11 12 13 14 15 16 17 18 19 20 21 22 23 24 25 26 27 28 29 30 31 32 33 34 35 36 37 38 39 40 41 42 43 44 45 46 47 48 49 50
000
ASUS45 KTFX 301410
RWRMT
MONTANA REGIONAL WEATHER ROUNDUP
NATIONAL WEATHER SERVICE GREAT FALLS MT
800 AM MDT SAT MAY 30 2015

NOTE: "FAIR" INDICATES FEW OR NO CLOUDS BELOW 12000 FEET WITH NO
SIGNIFICANT WEATHER AND/OR OBSTRUCTIONS TO VISIBILITY.

MTZ001>007-043-301500-
WEST OF THE DIVIDE

CITY           SKY/WX    TMP DP  RH WIND       PRES   REMARKS
KALISPELL      LGT RAIN  54  53  97 SW3       30.03R
MISSOULA       LGT RAIN  51  49  92 CALM      30.06R
BUTTE          CLOUDY    51  44  77 CALM      30.10F
MULLAN PASS    CLOUDY    50  44  80 CALM      30.08S
DEER LODGE       N/A     55  50  82 CALM      30.08S
EUREKA           N/A     54  54 100 CALM      30.02S
HAMILTON         N/A     52  48  87 N8        30.05R
LIBBY            N/A     54  54 100 NW3       30.02R
PLAINS           N/A     56  51  83 CALM      30.03R
RONAN            N/A     54  50  86 SE2       30.08R
THOMPSON FALLS   N/A     56  53  89 NE1       30.05F
$$

MTZ008-052>055-301500-
SOUTHWEST MONTANA

CITY           SKY/WX    TMP DP  RH WIND       PRES   REMARKS
BOZEMAN        MOSUNNY   54  49  83 NW3       30.08S
DILLON         PTSUNNY   54  47  77 S9        30.10S
W YELLOWSTONE  MOSUNNY   45  39  81 CALM      30.22S
THREE FORKS      N/A     55  30  38 CALM      30.06F
$$

MTZ009-010-012-014-046-048-049-054-301500-
EAST SLOPES AND CENTRAL MONTANA

CITY           SKY/WX    TMP DP  RH WIND       PRES   REMARKS
CUT BANK       CLOUDY    46  41  82 CALM      30.06R
GREAT FALLS    MOSUNNY   57  47  69 S5        30.00F
MALMSTROM AFB  MOSUNNY   54  49  83 NE2       30.01S
HELENA         MOSUNNY   56  48  74 CALM      30.04S
CONRAD           N/A     48  48 100 NE3       30.06R
$$

MTZ011-013-016-021-045-047-050-051-301500-
NORTH CENTRAL MONTANA

CITY           SKY/WX    TMP DP  RH WIND       PRES   REMARKS
HAVRE          PTSUNNY   52  38  58 E15       30.03S
LEWISTOWN      MOSUNNY   55  44  66 E10       30.05F
N BAR RANCH    FAIR      52  43  71 CALM      30.10F
CHINOOK          N/A     50  37  62 E17       30.07F
FORT BENTON      N/A     54  39  58 E9        30.03F
$$

MTZ017>020-022>027-061-062-301500-
NORTHEAST MONTANA

CITY           SKY/WX    TMP DP  RH WIND       PRES   REMARKS
GLASGOW        MOSUNNY   50  37  61 E22       30.17F
JORDAN           N/A     50  39  66 SE12      30.13F
SIDNEY         PTSUNNY   48  36  61 E9        30.29F
WOLF POINT     MOSUNNY   51  38  60 E9        30.23F
MALTA            N/A     53  38  56 NE9       30.08F
PLENTYWOOD       N/A     45  36  70 SE18      30.28F
POPLAR           N/A     50  36  57 E15G22    30.25S
SCOBEY           N/A     46  32  58 E14       30.21S
$$

MTZ028>42-056>058-301500-
SOUTHCENTRAL AND SOUTHEAST MONTANA

CITY           SKY/WX    TMP DP  RH WIND       PRES   REMARKS
BAKER          LGT RAIN  47  37  68 SE21G29   30.25F
BILLINGS       MOSUNNY   53  44  71 NE3       30.09S
LIVINGSTON     PTSUNNY   52  48  86 E6        30.09R
MILES CITY     MOSUNNY   52  38  58 SE18G28   30.16F
BIG TIMBER       N/A     52  48  87 CALM      30.10F
LAUREL           N/A     53  46  77 CALM      30.07S
ROUNDUP          N/A     53  41  64 CALM      29.99F
$$

REGIONAL REPORTS...DAKOTAS

CITY           SKY/WX    TMP DP  RH WIND       PRES   REMARKS
WILLISTON      MOSUNNY   45  34  65 SE13      30.33S
MINOT          PTSUNNY   40  29  64 SE14      30.40S
DICKINSON      SUNNY     44  35  70 SE16      30.30F
BEACH          FAIR      46  39  76 SE15      30.27F
CROSBY         FAIR      43  32  65 SE15G22   30.36S
WATFORD CITY   FAIR      41  34  75 SE20G25   30.31S
BISMARCK       MOSUNNY   42  29  59 E10       30.42R
GRAND FORKS    MOSUNNY   41  26  55 N18       30.42R
FARGO          SUNNY     41  30  65 N15       30.38R
BUFFALO SD       N/A     48  38  68 SE17      30.21F
RAPID CITY     SUNNY     46  40  79 S16       30.30F
$$

REGIONAL REPORTS...WYOMING/IDAHO/WASHINGTON

CITY           SKY/WX    TMP DP  RH WIND       PRES   REMARKS
GILLETTE       CLOUDY    46  42  86 S21G29    30.18F
SHERIDAN       PTSUNNY   47  44  90 NW3       30.13F
BUFFALO WY     SUNNY     49  45  86 E3        30.15S
CODY           MOSUNNY   55  48  76 CALM      30.14S
YELLOWSTONE LA   N/A     43  39  86 CALM      30.29F
IDAHO FALLS    MOSUNNY   53  49  86 NW6       30.13R
SALMON         CLOUDY    52  46  82 CALM      30.10S
BOISE          CLOUDY    66  46  48 NW7       29.92R
SPOKANE        CLOUDY    60  52  74 NE5       29.92S
$$

REGIONAL REPORTS...ALBERTA

CITY           SKY/WX    TMP DP  RH WIND       PRES   REMARKS
EDMONTON       SUNNY     52  34  50 SE15      30.09S
CALGARY        CLOUDY    46  39  76 SE5       30.05S
LETHBRIDGE     LGT RAIN  48  46  93 VRB2      30.03F
MEDICINE HAT   MOSUNNY   57  34  41 NE5       30.05F
$$

REGIONAL REPORTS...SASKATCHEWAN

CITY           SKY/WX    TMP DP  RH WIND       PRES   REMARKS
SWIFT CURRENT  PTSUNNY   48  32  53 SE16G23   30.17F
REGINA         PTSUNNY   43  30  61 SE22      30.33F
SASKATOON      PTSUNNY   45  30  57 SE13      30.31S
$$


USA.gov is the U.S. government's official web portal to all federal, state and local government web resources and services.